Location: Mountain View
(37.3861°N, 122.0839°W)
Time: 22:41:25
(UTC-07:00)

BlueWalker 3 - Visible Passes

Search period start: 20 May 2026 00:00
Search period end: 30 May 2026 00:00
Orbit: 447 x 457 km, 53.2° (Epoch: 20 May)

Date Brightness Start Highest point End Pass type
(mag) Time Alt. Az. Time Alt. Az. Time Alt. Az.
20 May 5.1 00:34:17 11° NW 00:35:02 11° NNW 00:36:13 10° N visible
20 May 5.1 03:51:38 10° N 03:52:49 11° NNE 03:54:00 10° NE visible
20 May 1.7 22:16:36 10° SW 22:20:08 77° NW 22:23:41 10° NE visible
20 May 5.0 23:56:12 10° NW 23:58:02 13° NNW 23:59:52 10° N visible
21 May 3.3 04:50:40 10° NNW 04:54:01 39° NE 04:57:21 10° ESE visible
21 May 1.5 21:39:47 10° SW 21:43:19 74° SE 21:46:51 10° NE visible
21 May 4.8 23:18:45 10° WNW 23:21:03 16° NNW 23:23:22 10° NNE visible
22 May 3.8 04:13:57 10° NNW 04:17:07 29° NE 04:20:16 10° E visible
22 May 1.8 21:03:04 10° SSW 21:06:31 50° SE 21:09:57 10° ENE visible
22 May 4.5 22:41:25 10° W 22:44:06 20° NNW 22:46:47 10° NNE visible
23 May 4.2 03:37:17 10° NNW 03:40:11 23° NNE 03:43:05 10° E visible
23 May 2.2 05:14:21 10° WNW 05:17:40 38° SW 05:20:58 10° SSE visible
23 May 4.2 22:04:10 10° W 22:07:09 25° NNW 22:10:08 10° NNE visible
24 May 4.6 03:00:39 10° NNW 03:03:15 19° NNE 03:05:49 10° ENE visible
24 May 1.7 04:37:24 10° NW 04:40:52 56° SW 04:44:20 10° SSE visible
24 May 3.7 21:27:00 10° W 21:30:13 32° NW 21:33:27 10° NNE visible
25 May 4.8 02:24:04 10° NNW 02:26:15 15° NNE 02:28:26 10° ENE visible
25 May 1.5 04:00:29 10° NW 04:04:02 82° SW 04:07:34 10° SE visible
25 May 3.1 20:49:55 10° WSW 20:53:19 42° NW 20:56:43 10° NE visible
25 May 5.4 22:31:13 10° NNW 22:31:29 10° NNW 22:31:44 10° NNW visible
26 May 5.0 01:47:34 10° N 01:49:14 13° NNE 01:50:55 10° NE visible
26 May 3.3 03:23:39 10° NW 03:25:23 26° NW 03:25:23 26° NW visible
26 May 5.1 21:53:01 10° NW 21:54:26 12° NNW 21:55:50 10° N visible
27 May 5.1 01:11:16 10° N 01:12:12 11° NNE 01:13:08 10° NE visible
27 May 4.6 02:46:51 10° NW 02:47:07 12° NW 02:47:07 12° NW visible
27 May 4.9 21:15:24 10° WNW 21:17:23 14° NNW 21:19:23 10° N visible
28 May 4.8 02:10:05 10° NNW 02:10:19 11° NNW 02:10:19 11° NNW visible
29 May 4.8 01:33:20 10° NNW 01:33:56 13° NNW 01:33:56 13° NNW visible
